Вернуться в каталог

STARLINK-36145

АктивенСвязьVLEO
NORAD 66983·PAYLOAD·🇺🇸 United States

Запущен Dec 8, 2025 с Cape Canaveral Space Force Station

Loading…

Ближайшие Пролёты (ближайшие 24 часа)

TLE

СвежийSource: CelesTrak SupGP

Эпоха: Sep 14, 2026, 14:34 UTC

1 66983C 25288AA  26257.60743056 -.00038766  00000+0 -14044-2 0  2573
2 66983  43.0045  36.6874 0001448 274.4694 251.1820 15.27592129    10

Отслеживайте STARLINK-36145 в реальном времени с AllMySat

Download on the App Store